Flag for Switzerland Weather past 2 weeks in Chur, Graubünden, Switzerland

Now
66 °F

Mild.


Feels Like: 66 °F
Forecast: 58 / 83 °F
Wind: 1 mph from Northwest

Location: Chur-Ems

Current Time: Jul 31, 2015 at 10:31:55 PM

Latest Report: Jul 31, 2015 at 9:00 PM


Visibility: N/A

Pressure: 29.88 "Hg (27.88 "Hg at 592m altitude)

Humidity: 59%

Dew point: 52 °F

Location of ChurLocation

Historic Weather in Chur — Graph

°F

Chur temperature yesterday

Maximum temperature yesterday: 68 °F (at 3:00 PM)
Minimum temperature yesterday: 55 °F (at 6:00 AM)
Average temperature yesterday: 61 °F

Past Weeks' High & Low Weather Summary

 TemperatureHumidityPressure
High92 °F (Jul 22, 4:00 PM)96% (Jul 27, 1:00 AM)30.22 "Hg (Jul 27, 1:00 AM)
Low51 °F (Jul 31, 7:00 AM)31% (Jul 17, 2:00 PM)29.65 "Hg (Jul 24, 7:00 PM)
Average70 °F65%29.92 "Hg
* Reported Jul 16 9:00 PM — Jul 31 9:00 PM, Chur, Weather by CustomWeather, © 2015

Note: Actual official high and low records may vary slightly from our data, if they occured in-between our weather recording intervals... More about our weather records

Advertising

Chur weather history for previous 24 hours

 ConditionsComfort  
Time TempWeatherWind HumidityBarometerVisibility
9:00 PM
Fri, Jul 31
66 °FMild.1 mph59%29.88 "HgN/A
8:00 PM70 °FMild.5 mph50%29.86 "HgN/A
7:00 PM72 °FMild.8 mph45%29.83 "HgN/A
6:00 PM74 °FMild.14 mph42%29.83 "HgN/A
5:00 PM76 °FOvercast.14 mph41%29.83 "Hg12 mi
4:00 PM75 °FMild.14 mph39%29.83 "HgN/A
3:00 PM75 °FMild.13 mph39%29.85 "HgN/A
2:00 PM74 °FMild.10 mph41%29.85 "HgN/A
1:00 PM74 °FMild.8 mph38%29.88 "HgN/A
12:00 PM71 °FMild.5 mph39%29.92 "HgN/A
11:00 AM69 °FScattered clouds.5 mph46%29.95 "Hg11 mi
10:00 AM64 °FMild.5 mph58%30.00 "HgN/A
9:00 AM60 °FCool.5 mph67%30.04 "HgN/A
8:00 AM55 °FScattered clouds.1 mph75%30.06 "Hg11 mi
7:00 AM51 °FCool.No wind88%30.09 "HgN/A
6:00 AM52 °FCool.1 mph88%30.08 "HgN/A
4:00 AM54 °FCool.No wind82%30.07 "HgN/A
3:00 AM56 °FCool.1 mph79%30.06 "HgN/A
2:00 AM59 °FOvercast.1 mph73%30.05 "Hg11 mi
1:00 AM61 °FCool.3 mph65%30.03 "HgN/A
12:00 AM61 °FCool.6 mph66%30.03 "HgN/A
10:00 PM
Thu, Jul 30
62 °FMild.6 mph62%30.00 "HgN/A
Weather by CustomWeather, © 2015

See weather overviewHow to use our weather pages